Location: El Águila
(10.4167°N, 66.7167°W)
Time: 14:54:40
(UTC+00:00)

CZ-3C R/B - Pass Details

Date: 07 April 2023
Orbit: 253 x 32126 km, 20.0° (Epoch: 28 May)

Event Time Altitude Azimuth Distance (km) Brightness Sun altitude
Rises 04:40:42 0° 272° (W) 12,869 8.2 -72.6°
Reaches altitude 10° 04:49:23 10° 275° (W) 14,027 8.3 -72.1°
Maximum altitude 06:35:56 39° 287° (WNW) 28,361 9.4 -54.1°
Drops below altitude 10° 13:18:13 10° 160° (SSE) 3,395 5.7 42.7°
Sets 13:20:06 0° 148° (SSE) 3,739 5.9 43.2°
